Location: Unspecified
(22.6800°N, 112.2000°E)
Time: 12:57:22
(UTC+08:00)

Transit 2A - Pass Details

Date: 11 August 2021
Orbit: 594 x 964 km, 66.7° (Epoch: 21 September)

Event Time Altitude Azimuth Distance (km) Brightness Sun altitude
Rises 14:46:54 0° 323° (NW) 3,465 9.6 58.3°
Reaches altitude 10° 14:49:32 10° 314° (NW) 2,573 9.2 57.7°
Maximum altitude 14:54:52 33° 252° (WSW) 1,513 9.0 56.5°
Drops below altitude 10° 15:00:26 10° 190° (S) 2,683 9.1 55.2°
Sets 15:03:16 0° 181° (S) 3,633 9.5 54.6°
